Regional Weather Roundup
Issued by NWS

Home | Current Version | Previous Version | Graphics & Text | Print | Product List | Glossary On
Versions: 1 2 3 4 5 6 7 8 9 10 11 12 13 14 15 16 17 18 19 20 21 22 23 24 25 26 27 28 29 30 31 32 33 34 35 36 37 38 39 40 41 42 43 44 45 46 47 48 49 50
000
ASUS45 KSLC 140310
RWRUT

UTAH REGIONAL WEATHER ROUNDUP
NATIONAL WEATHER SERVICE SALT LAKE CITY UT
900 PM MDT SUN JUL 13 2014

UTZ001>011-023>025-140400-

NORTHERN UTAH

CITY           SKY/WX    TMP DP  RH WIND       PRES   REMARKS
HILL AFB       CLEAR     90  43  19 NW5       30.13S
LOGAN          CLEAR     84  58  40 CALM      30.11R
OGDEN          CLEAR     87  44  22 NW5       30.09S
PROVO AIRPORT  CLEAR     84  57  39 NW10      30.10S
SALT LAKE CITY MOCLDY    89  46  22 W8        30.06S
VERNAL         CLEAR     84  38  19 N6        30.14S
WENDOVER       CLEAR     93  41  16 E8        30.07R
HEBER CITY     PTCLDY    81  46  30 NE6       30.19S

$$

UTZ012>022-026-027-140400-

SOUTHERN UTAH

CITY           SKY/WX    TMP DP  RH WIND       PRES   REMARKS
BRYCE CANYON   CLOUDY    69  50  50 N6        30.35R
CEDAR CITY     MOCLDY    85  42  22 N5        30.14R
MILFORD        MOCLDY    92  36  14 N8        30.08R
MOAB/CYNLANDS  CLEAR     94  39  14 NE12      30.02R HX  90
PRICE          PTCLDY    76  56  49 N10       30.19R
ST GEORGE      PTCLDY    99  48  18 SE12      29.88R HX  95

$$

REGIONAL REPORTS     COLORADO/ARIZONA

CITY           SKY/WX    TMP DP  RH WIND       PRES   REMARKS
CRAIG, CO      CLEAR     69  50  50 E6        30.25R
GRAND JUNCTION PTCLDY    88  40  18 N7        30.07R
RIFLE          PTCLDY    83  42  23 CALM      30.16R
MONTROSE       MOCLDY    82  48  30 SE7       30.18R
CORTEZ         CLEAR     76  56  49 CALM      30.18S
PAGE, AZ       MOCLDY    98  38  12 N5        30.01R HX  93
GRAND CANYON   LGT RAIN  67  58  72 SE8       30.28F
KINGMAN        CLOUDY    85  54  34 SW14      30.00R
FLAGSTAFF      CLOUDY    65  54  67 NW3       30.33R

$$

REGIONAL REPORTS    NEVADA/IDAHO/WYOMING

CITY           SKY/WX    TMP DP  RH WIND       PRES   REMARKS
LAS VEGAS, NV  MOCLDY   108  39   9 S6        29.77R HX 102
ELY            CLOUDY    86  39  19 E7        30.21S
ELKO           CLEAR     94  36  13 E7        30.09S
POCATELLO, ID  PTCLDY    86  44  23 CALM      30.12S
BURLEY         CLEAR     80  57  45 S3        30.07S
EVANSTON, WY   CLEAR     77  41  27 N8        30.34S
ROCK SPRINGS   PTCLDY    75  41  29 NE15      30.31

$$


USA.gov is the U.S. government's official web portal to all federal, state and local government web resources and services.